Flag for Germany Weather past 2 weeks in Duisburg, North Rhine-Westphalia, Germany

Now
57 °F

Sprinkles. Passing clouds.


Feels Like: 54 °F
Forecast: 45 / 57 °F
Wind: 14 mph from Southwest

Location: Duesseldorf

Current Time: Oct 20, 2014 at 9:01:40 PM

Latest Report: Oct 20, 2014 at 8:20 PM


Visibility: N/A

Pressure: 29.98 "Hg

Humidity: 82%

Dew point: 52 °F

Location of DuisburgLocation

Historic Weather in Duisburg — Graph

°F

Duisburg temperature yesterday

Maximum temperature yesterday: 75 °F (at 2:20 PM)
Minimum temperature yesterday: 59 °F (at 6:20 AM)
Average temperature yesterday: 65 °F

Past Weeks' High & Low Weather Summary

 TemperatureHumidityPressure
High75 °F (Oct 19, 2:20 PM)100% (Oct 6, 3:50 AM)30.09 "Hg (Oct 6, 3:50 AM)
Low48 °F (Oct 11, 4:50 AM)49% (Oct 14, 2:20 PM)29.50 "Hg (Oct 7, 9:50 AM)
Average59 °F81%29.83 "Hg
* Reported Oct 5 7:20 PM — Oct 20 7:50 PM, Duisburg, Weather by CustomWeather, © 2014

Note: Actual official high and low records may vary slightly from our data, if they occured in-between our weather recording intervals... More about our weather records

Advertising

Duisburg weather history for previous 24 hours

 ConditionsComfort  
Time TempWeatherWind HumidityBarometerVisibility
7:50 PM
Oct 20
59 °FScattered showers. Passing clouds.10 mph77%29.98 "HgN/A
7:20 PM57 °FScattered clouds.12 mph82%29.98 "HgN/A
6:50 PM55 °FPassing clouds.9 mph82%29.98 "HgN/A
6:20 PM57 °FPassing clouds.9 mph77%29.98 "HgN/A
5:50 PM61 °FPassing clouds.12 mph72%29.98 "HgN/A
5:20 PM61 °FPassing clouds.12 mph72%29.98 "HgN/A
4:50 PM61 °FPassing clouds.12 mph72%29.98 "HgN/A
4:20 PM61 °FScattered clouds.14 mph68%30.01 "HgN/A
3:50 PM63 °FScattered clouds.13 mph64%30.01 "HgN/A
3:20 PM63 °FPartly sunny.14 mph68%30.01 "HgN/A
2:50 PM61 °FPartly sunny.14 mph72%30.01 "HgN/A
2:20 PM61 °FScattered clouds.14 mph72%30.04 "HgN/A
1:50 PM63 °FScattered clouds.15 mph68%30.04 "HgN/A
1:20 PM61 °FPartly sunny.15 mph72%30.04 "HgN/A
12:50 PM61 °FPartly sunny.15 mph72%30.04 "HgN/A
12:20 PM59 °FPartly sunny.15 mph77%30.04 "HgN/A
11:50 AM59 °FPartly sunny.12 mph82%30.04 "HgN/A
11:20 AM59 °FBroken clouds.12 mph82%30.04 "HgN/A
10:50 AM59 °FPartly sunny.13 mph77%30.04 "HgN/A
10:20 AM59 °FPartly sunny.13 mph77%30.04 "HgN/A
9:50 AM57 °FBroken clouds.12 mph88%30.04 "HgN/A
9:20 AM57 °FBroken clouds.12 mph82%30.04 "HgN/A
8:50 AM57 °FPassing clouds.12 mph82%30.04 "HgN/A
8:20 AM57 °FPassing clouds.12 mph82%30.04 "HgN/A
7:50 AM57 °FPassing clouds.12 mph88%30.01 "HgN/A
7:20 AM57 °FPassing clouds.12 mph82%30.04 "HgN/A
6:50 AM57 °FPassing clouds.12 mph88%30.01 "HgN/A
5:20 AM55 °FPassing clouds.9 mph88%30.01 "HgN/A
4:50 AM54 °FPassing clouds.8 mph88%30.01 "HgN/A
4:20 AM55 °FPassing clouds.8 mph88%30.01 "HgN/A
3:50 AM55 °FPassing clouds.9 mph88%30.04 "HgN/A
3:20 AM55 °FPassing clouds.9 mph88%30.04 "HgN/A
2:50 AM57 °FPassing clouds.9 mph82%30.04 "HgN/A
2:20 AM59 °FClear.12 mph77%30.04 "Hg10 mi
1:50 AM59 °FClear.13 mph77%30.04 "Hg10 mi
1:20 AM59 °FClear.14 mph77%30.01 "Hg10 mi
12:50 AM61 °FClear.12 mph72%30.04 "Hg10 mi
12:20 AM61 °FClear.12 mph72%30.04 "Hg10 mi
11:50 PM
Oct 19
61 °FClear.17 mph72%30.04 "Hg10 mi
11:20 PM63 °FClear.14 mph68%30.01 "Hg10 mi
10:50 PM63 °FClear.8 mph77%30.01 "Hg10 mi
10:20 PM64 °FClear.7 mph78%30.01 "Hg10 mi
9:50 PM64 °FClear.12 mph78%29.98 "Hg10 mi
9:20 PM66 °FClear.13 mph78%29.98 "Hg10 mi
Weather by CustomWeather, © 2014

See weather overviewHow to use our weather pages